Location: Rounton
(54.4000°N, 1.3500°W)
Time: 04:14:12
(UTC+00:00)

S-56A Canister/Altair - Pass Details

Date: 30 November 2021
Orbit: 633 x 2499 km, 38.9° (Epoch: 17 January)

Event Time Altitude Azimuth Distance (km) Brightness Sun altitude
Rises 03:24:10 0° 240° (WSW) 3,874 - -39.0°
Reaches altitude 10° 03:28:17 10° 220° (SW) 2,586 - -38.4°
Maximum altitude 03:31:38 16° 185° (S) 1,990 - -38.0°
Drops below altitude 10° 03:34:33 10° 149° (SSE) 2,185 - -37.6°
Exits shadow 03:36:03 - 135° (SE) 2,530 10.5 -37.3°
Sets 03:37:34 0° 125° (SE) 2,978 11.0 -37.1°
